2023/10/02 00:00:00, 0.0,14.8
2023/10/02 00:10:00, 0.0,15.2
2023/10/02 00:20:00, 0.1,14.5
2023/10/02 00:30:00, 0.1,14.4
2023/10/02 00:40:00, 0.1,14.5
2023/10/02 00:50:00, 0.1,15.2
2023/10/02 01:00:00, 0.1,14.8
2023/10/02 01:10:00, 0.0,14.6
2023/10/02 01:20:00, 0.1,14.4
2023/10/02 01:30:00, 0.1,14.4
2023/10/02 01:40:00, 0.3,14.1
2023/10/02 01:50:00, 0.1,13.9
2023/10/02 02:00:00, 0.1,14.3
2023/10/02 02:10:00, 0.1,13.8
2023/10/02 02:20:00, 0.2,13.8
2023/10/02 02:30:00, 0.2,13.7
2023/10/02 02:40:00, 0.1,13.5
2023/10/02 02:50:00, 0.0,13.4
2023/10/02 03:00:00, 0.1,13.6
2023/10/02 03:10:00, 0.1,13.3
2023/10/02 03:20:00, 0.1,13.3
2023/10/02 03:30:00, 0.2,13.3
2023/10/02 03:40:00, 0.2,13.2
2023/10/02 03:50:00, 0.2,13.0
2023/10/02 04:00:00, 0.2,13.1
2023/10/02 04:10:00, 0.1,12.7
2023/10/02 04:20:00, 0.1,12.8
2023/10/02 04:30:00, 0.1,12.8
2023/10/02 04:40:00, 0.1,12.9
2023/10/02 04:50:00, 0.2,13.0
2023/10/02 05:00:00, 0.2,12.8
2023/10/02 05:10:00, 0.2,12.6
2023/10/02 05:20:00, 0.2,12.3
2023/10/02 05:30:00, 0.2,12.1
2023/10/02 05:40:00, 0.2,12.1
2023/10/02 05:50:00, 0.2,11.8
2023/10/02 06:00:00, 0.2,12.0
2023/10/02 06:10:00, 0.2,12.2
2023/10/02 06:20:00, 0.2,12.1
2023/10/02 06:30:00, 0.2,12.6
2023/10/02 06:40:00, 0.2,12.4
2023/10/02 06:50:00, 0.2,12.5
2023/10/02 07:00:00, 0.2,16.8
2023/10/02 07:10:00, 0.3,20.8
2023/10/02 07:20:00, 0.3,20.0
2023/10/02 07:30:00, 0.2,22.3
2023/10/02 07:40:00, 0.1,23.6
2023/10/02 07:50:00, 0.1,22.2
2023/10/02 08:00:00, 0.1,24.7
2023/10/02 08:10:00, 0.3,25.0
2023/10/02 08:20:00, 0.3,23.1
2023/10/02 08:30:00, 0.3,19.8
2023/10/02 08:40:00, 0.3,19.9
2023/10/02 08:50:00, 0.3,20.4
2023/10/02 09:00:00, 0.6,21.6
2023/10/02 09:10:00, 0.4,21.5
2023/10/02 09:20:00, 0.5,22.1
2023/10/02 09:30:00, 0.9,23.7
2023/10/02 09:40:00, 0.4,27.2
2023/10/02 09:50:00, 0.2,25.1
2023/10/02 10:00:00, 0.3,25.8
2023/10/02 10:10:00, 0.0,25.8
2023/10/02 10:20:00, 0.1,25.8
2023/10/02 10:30:00, 0.1,23.8
2023/10/02 10:40:00, 0.4,24.7
2023/10/02 10:50:00, 0.5,25.1
2023/10/02 11:00:00, 0.4,24.5
2023/10/02 11:10:00, 0.0,24.6
2023/10/02 11:20:00, 0.0,24.9
2023/10/02 11:30:00, 0.1,24.3
2023/10/02 11:40:00, 0.5,24.6
2023/10/02 11:50:00, 0.3,25.0
2023/10/02 12:00:00, 0.1,23.8
2023/10/02 12:10:00, 0.6,24.3
2023/10/02 12:20:00, 0.7,24.1
2023/10/02 12:30:00, 0.9,24.2
2023/10/02 12:40:00, 0.8,24.5
2023/10/02 12:50:00, 0.9,24.4
2023/10/02 13:00:00, 0.8,24.4
2023/10/02 13:10:00, 0.7,24.0
2023/10/02 13:20:00, 0.6,24.3
2023/10/02 13:30:00, 0.2,24.6
2023/10/02 13:40:00, 0.5,24.7
2023/10/02 13:50:00, 0.6,24.0
2023/10/02 14:00:00, 0.6,23.4
2023/10/02 14:10:00, 0.5,23.8
2023/10/02 14:20:00, 0.5,23.7
2023/10/02 14:30:00, 0.5,23.5
2023/10/02 14:40:00, 0.4,23.1
2023/10/02 14:50:00, 0.3,23.1
2023/10/02 15:00:00, 0.2,23.3
2023/10/02 15:10:00, 0.2,22.1
2023/10/02 15:20:00, 0.2,21.6
2023/10/02 15:30:00, 0.3,21.6
2023/10/02 15:40:00, 0.0,20.6
2023/10/02 15:50:00, 0.0,19.7
2023/10/02 16:00:00, 0.0,19.2
2023/10/02 16:10:00, 0.0,19.3
2023/10/02 16:20:00, 0.1,18.5
2023/10/02 16:30:00, 0.1,18.8
2023/10/02 16:40:00, 0.1,18.5
2023/10/02 16:50:00, 0.0,17.2
2023/10/02 17:00:00, 0.0,17.7
2023/10/02 17:10:00, 0.0,17.5
2023/10/02 17:20:00, 0.0,16.6
2023/10/02 17:30:00, 0.0,16.3
2023/10/02 17:40:00, 0.0,16.1
2023/10/02 17:50:00, 0.0,15.6
2023/10/02 18:00:00, 0.0,15.2
2023/10/02 18:10:00, 0.0,15.0
2023/10/02 18:20:00, 0.1,14.5
2023/10/02 18:30:00, 0.1,14.2
2023/10/02 18:40:00, 0.2,13.8
2023/10/02 18:50:00, 0.2,14.1
2023/10/02 19:00:00, 0.2,13.9
2023/10/02 19:10:00, 0.2,13.9
2023/10/02 19:20:00, 0.2,13.9
2023/10/02 19:30:00, 0.2,13.6
2023/10/02 19:40:00, 0.2,13.3
2023/10/02 19:50:00, 0.2,13.2
2023/10/02 20:00:00, 0.2,13.2
2023/10/02 20:10:00, 0.2,12.7
2023/10/02 20:20:00, 0.2,12.9
2023/10/02 20:30:00, 0.2,12.8
2023/10/02 20:40:00, 0.2,12.8
2023/10/02 20:50:00, 0.2,12.8
2023/10/02 21:00:00, 0.2,12.5
2023/10/02 21:10:00, 0.2,12.4
2023/10/02 21:20:00, 0.2,12.2
2023/10/02 21:30:00, 0.2,12.4
2023/10/02 21:40:00, 0.2,12.5
2023/10/02 21:50:00, 0.2,12.1
2023/10/02 22:00:00, 0.2,12.2
2023/10/02 22:10:00, 0.2,12.0
2023/10/02 22:20:00, 0.2,12.0
2023/10/02 22:30:00, 0.2,12.0
2023/10/02 22:40:00, 0.2,11.9
2023/10/02 22:50:00, 0.2,12.0
2023/10/02 23:00:00, 0.2,11.8
2023/10/02 23:10:00, 0.1,11.8
2023/10/02 23:20:00, 0.1,11.8
2023/10/02 23:30:00, 0.1,11.7
2023/10/02 23:40:00, 0.1,11.7
2023/10/02 23:50:00, 0.1,11.7
